This is the latest recevied weather packets stored in our database for station/object N0HEQ. If no packets are shown the sender has not sent any weather packets the latest 10 day(s).
| Time | Temp. | Humidity | Pressure | Rain* | Wind** | Luminosity | Snow |
|---|---|---|---|---|---|---|---|
| 1777258311 | 8.89° C | 75% | 1007.5 hPa | 0 mm | - | 0 W/m² | - |
| 1777258009 | 8.89° C | 73% | 1007.5 hPa | 0 mm | - | 0 W/m² | - |
| 1777257705 | 8.89° C | 73% | 1007.4 hPa | 0 mm | - | 0 W/m² | - |
| 1777257403 | 8.89° C | 73% | 1007.4 hPa | 0 mm | - | 0 W/m² | - |
| 1777257099 | 8.89° C | 74% | 1007.5 hPa | 0 mm | - | 0 W/m² | - |
| 1777256796 | 8.89° C | 73% | 1007.6 hPa | 0 mm | - | 0 W/m² | - |
| 1777256492 | 8.89° C | 73% | 1007.4 hPa | 0 mm | - | 0 W/m² | - |
| 1777256187 | 8.89° C | 73% | 1007 hPa | 0 mm | - | 0 W/m² | - |
| 1777255885 | 8.89° C | 73% | 1006.8 hPa | 0 mm | - | 0 W/m² | - |
| 1777255581 | 8.89° C | 72% | 1006.9 hPa | 0 mm | - | 0 W/m² | - |
| 1777255277 | 9.44° C | 72% | 1006.7 hPa | 0 mm | - | 0 W/m² | - |
| 1777254973 | 9.44° C | 71% | 1006.5 hPa | 0 mm | - | 1 W/m² | - |
| 1777254670 | 10° C | 70% | 1006.7 hPa | 0 mm | - | 2 W/m² | - |
| 1777254367 | 10° C | 69% | 1006.5 hPa | 0 mm | - | 3 W/m² | - |
| 1777254062 | 10° C | 68% | 1006.4 hPa | 0 mm | - | 5 W/m² | - |
| 1777253760 | 10.56° C | 66% | 1006.7 hPa | 0 mm | - | 6 W/m² | - |
| 1777253457 | 10.56° C | 63% | 1006.9 hPa | 0 mm | - | 6 W/m² | - |
| 1777253154 | 10.56° C | 64% | 1006.9 hPa | 0 mm | - | 8 W/m² | - |
| 1777252852 | 10.56° C | 66% | 1006.8 hPa | 0 mm | - | 12 W/m² | - |
| 1777252549 | 10.56° C | 66% | 1006.7 hPa | 0 mm | - | 10 W/m² | - |
* Rain latest hour (hover to see other rain measurements)
** Current wind speed in m/s (hover to see current wind gust speed)